sat.trackr.live / text

‹ back to catalog

STARLINK-33971

NORAD 63932 · 2025-098G

PAYLOAD ACTIVE UNKNOWN

§ Identity

Operator
Country
US
Launch date
2025-05-13
Launch site
AFWTR
Launch vehicle
Mass (kg)
RCS (m²)

Purposes: comms

External: N2YO · Heavens-Above · Gunter

§ Orbital elements

Epoch: 2026-09-20T09:46:18.388128Z

Period
94.14 min
Inclination
70.0001°
Eccentricity
0.0003162
Mean motion
15.29598062 rev/d
Perigee alt
474.8 km
Apogee alt
479.2 km
Semi-major
6,855.1 km
B*
5.3324e-4
RAAN
141.3430°
Arg perigee
272.0805°
Mean anomaly
88.0008°
Rev number
7,579

§ Raw data

STARLINK-339711 63932U 25098G   26263.40715727  .00015241  00000+0  53324-3 0  99912 63932  70.0001 141.3430 0003162 272.0805  88.0008 15.29598062 75794

JSON: /api/v1/satellites/63932 · /tle

For live sub-satellite position, see the globe view (requires WebGL).

§ Visibility from observer

Set your observer location to see the next 7 days of passes ≥ 10°. The values pass through the URL so the page stays shareable.

No JS? Fill the form by hand. The geolocation button needs JavaScript.